This is the latest recevied weather packets stored in our database for station/object DL3GCR-10. If no packets are shown the sender has not sent any weather packets the latest 1 day(s).
| Time | Temp. | Humidity | Pressure | Rain* | Wind** | Luminosity | Snow |
|---|---|---|---|---|---|---|---|
| 1788557006 | 23.33° C | 53% | 1018.3 hPa | - | - | - | - |
| 1788556106 | 23.33° C | 52% | 1018.1 hPa | - | - | - | - |
| 1788555206 | 23.89° C | 52% | 1018 hPa | - | - | - | - |
| 1788554305 | 23.89° C | 51% | 1017.9 hPa | - | - | - | - |
| 1788553405 | 24.44° C | 50% | 1017.9 hPa | - | - | - | - |
| 1788552505 | 25° C | 49% | 1017.8 hPa | - | - | - | - |
| 1788551605 | 25.56° C | 49% | 1017.7 hPa | - | - | - | - |
| 1788550705 | 26.11° C | 48% | 1017.6 hPa | - | - | - | - |
| 1788549805 | 26.67° C | 46% | 1017.5 hPa | - | - | - | - |
| 1788548904 | 26.67° C | 45% | 1017.3 hPa | - | - | - | - |
| 1788548003 | 27.22° C | 43% | 1017.1 hPa | - | - | - | - |
| 1788547102 | 27.78° C | 45% | 1016.9 hPa | - | - | - | - |
| 1788546202 | 28.33° C | 45% | 1016.7 hPa | - | - | - | - |
| 1788545301 | 28.89° C | 42% | 1016.5 hPa | - | - | - | - |
| 1788544404 | 29.44° C | 40% | 1016.2 hPa | - | - | - | - |
| 1788543504 | 29.44° C | 40% | 1016.2 hPa | - | - | - | - |
| 1788542604 | 30° C | 39% | 1016.1 hPa | - | - | - | - |
| 1788541704 | 30° C | 38% | 1016.1 hPa | - | - | - | - |
| 1788540803 | 30° C | 39% | 1016.2 hPa | - | - | - | - |
| 1788539903 | 30.56° C | 38% | 1016.1 hPa | - | - | - | - |
| 1788539003 | 30.56° C | 37% | 1016.2 hPa | - | - | - | - |
* Rain since midnight (hover to see other rain measurements)
** Current wind speed in m/s (hover to see current wind gust speed)